Weather History for Rickenbacker, OH

Change the Weather History Date:

Monday, July 29, 2013

  Actual Average Record
Temperature  
Mean Temperature 66 °F -  
Max Temperature 77 °F 84 °F 95 °F (2011)
Min Temperature 54 °F 63 °F 54 °F (2013)
Growing Degree Days 16 (Base 50)    
Moisture  
Dew Point 52 °F    
Average Humidity 61    
Maximum Humidity 84    
Minimum Humidity 37    
Precipitation  
Precipitation 0.00 in - - ()
Sea Level Pressure  
Sea Level Pressure 30.13 in    
Wind  
Wind Speed 6 mph (WSW)    
Max Wind Speed 14 mph    
Max Gust Speed 18 mph    
Visibility 10 miles    
Events      
Averages and records for this station are not official NWS values.
T = Trace of Precipitation, MM = Missing Value Source: NWS Daily Summary

Daily Weather History Graph

Daily Weather History Graph

Search for Another Location

Airport:

Trip Planner

Search our weather history database for the weather conditions in past years. The results will help you decide how hot, cold, wet, or windy it might be!

Date:

Astronomy

Jul. 29, 2013 Rise Set
Actual Time 6:28 AM EDT 8:47 PM EDT
Civil Twilight 5:57 AM EDT 9:18 PM EDT
Nautical Twilight 5:19 AM EDT 9:55 PM EDT
Astronomical Twilight 4:38 AM EDT 10:36 PM EDT
Moon 12:10 AM EDT (7/29) 2:07 PM EDT (7/29)
Length of Visible Light 15h 20m
Length of Day
14h 19m
Waning Gibbous, 51% of the Moon is Illuminated
Jul 29
Waning Gibbous
Jul 29
Last Quarter
Aug 6
New
Aug 14
First Quarter
Aug 20
Full

Hourly Weather History & Observations

Time (EDT) Temp. Dew Point Humidity Pressure Visibility Wind Dir Wind Speed Gust Speed Precip Events Conditions
12:15 AM 57.7 °F 51.1 °F 78% 30.06 in 10.0 mi South 4.6 mph - N/A   Clear
12:35 AM 56.8 °F 50.9 °F 80% 30.06 in 10.0 mi South 4.6 mph - N/A   Clear
12:55 AM 57.4 °F 50.9 °F 79% 30.06 in 10.0 mi SSW 4.6 mph - N/A   Mostly Cloudy
1:15 AM 57.4 °F 51.1 °F 79% 30.06 in 10.0 mi South 4.6 mph - N/A   Overcast
1:35 AM 57.4 °F 51.6 °F 81% 30.06 in 10.0 mi Calm Calm - N/A   Overcast
1:55 AM 58.1 °F 51.3 °F 78% 30.06 in 10.0 mi WSW 3.5 mph - N/A   Scattered Clouds
2:15 AM 59.2 °F 50.7 °F 74% 30.06 in 10.0 mi SW 3.5 mph - N/A   Clear
2:35 AM 58.3 °F 50.4 °F 75% 30.06 in 10.0 mi South 4.6 mph - N/A   Clear
2:55 AM 55.9 °F 50.0 °F 80% 30.06 in 10.0 mi South 6.9 mph - N/A   Clear
3:15 AM 56.1 °F 49.8 °F 79% 30.06 in 10.0 mi South 4.6 mph - N/A   Clear
3:55 AM 55.6 °F 49.5 °F 80% 30.07 in 10.0 mi SSW 4.6 mph - N/A   Clear
4:15 AM 55.4 °F 49.5 °F 80% 30.07 in 10.0 mi SSW 5.8 mph - N/A   Clear
4:35 AM 54.9 °F 49.3 °F 81% 30.07 in 10.0 mi South 5.8 mph - N/A   Scattered Clouds
4:55 AM 54.5 °F 49.8 °F 84% 30.08 in 10.0 mi South 5.8 mph - N/A   Mostly Cloudy
5:15 AM 55.8 °F 50.7 °F 83% 30.08 in 10.0 mi South 6.9 mph - N/A   Overcast
5:35 AM 56.7 °F 51.1 °F 82% 30.08 in 10.0 mi SSW 6.9 mph - N/A   Overcast
5:55 AM 56.7 °F 51.1 °F 82% 30.09 in 10.0 mi SSW 6.9 mph - N/A   Overcast
6:15 AM 56.8 °F 51.3 °F 82% 30.09 in 10.0 mi SSW 5.8 mph - N/A   Overcast
6:35 AM 57.2 °F 51.3 °F 81% 30.10 in 10.0 mi SSW 4.6 mph - N/A   Overcast
6:55 AM 56.8 °F 51.4 °F 82% 30.10 in 10.0 mi SSW 5.8 mph - N/A   Overcast
7:15 AM 57.0 °F 51.6 °F 82% 30.11 in 10.0 mi SW 3.5 mph - N/A   Overcast
7:35 AM 57.0 °F 51.6 °F 82% 30.11 in 10.0 mi SW 5.8 mph - N/A   Scattered Clouds
7:55 AM 58.3 °F 52.0 °F 80% 30.11 in 10.0 mi SW 4.6 mph - N/A   Scattered Clouds
8:15 AM 59.7 °F 52.5 °F 77% 30.11 in 10.0 mi SW 3.5 mph - N/A   Scattered Clouds
8:35 AM 61.2 °F 52.7 °F 74% 30.12 in 10.0 mi SW 4.6 mph - N/A   Mostly Cloudy
8:55 AM 62.1 °F 53.2 °F 73% 30.13 in 10.0 mi SW 4.6 mph - N/A   Overcast
9:15 AM 63.0 °F 53.6 °F 71% 30.13 in 10.0 mi WSW 4.6 mph - N/A   Overcast
9:35 AM 64.6 °F 54.5 °F 70% 30.14 in 10.0 mi WSW 3.5 mph - N/A   Overcast
9:55 AM 65.7 °F 54.9 °F 68% 30.14 in 10.0 mi SSW 6.9 mph - N/A   Mostly Cloudy
10:15 AM 66.7 °F 54.7 °F 65% 30.14 in 10.0 mi SW 4.6 mph - N/A   Clear
10:35 AM 68.0 °F 55.2 °F 64% 30.14 in 10.0 mi WSW 4.6 mph - N/A   Clear
10:55 AM 69.4 °F 54.0 °F 58% 30.14 in 10.0 mi West 3.5 mph - N/A   Clear
11:15 AM 70.7 °F 53.6 °F 55% 30.14 in 10.0 mi WSW 5.8 mph - N/A   Clear
11:35 AM 72.0 °F 53.6 °F 52% 30.15 in 10.0 mi WSW 9.2 mph - N/A   Clear
11:55 AM 72.7 °F 52.9 °F 50% 30.14 in 10.0 mi NW 6.9 mph - N/A   Scattered Clouds
12:15 PM 73.6 °F 52.3 °F 47% 30.14 in 10.0 mi West 8.1 mph - N/A   Mostly Cloudy
12:35 PM 73.4 °F 51.6 °F 46% 30.15 in 10.0 mi WSW 10.4 mph - N/A   Mostly Cloudy
12:55 PM 73.6 °F 51.4 °F 46% 30.15 in 10.0 mi West 10.4 mph 18.4 mph N/A   Mostly Cloudy
1:15 PM 74.3 °F 51.3 °F 44% 30.15 in 10.0 mi West 10.4 mph - N/A   Mostly Cloudy
1:35 PM 74.3 °F 50.5 °F 43% 30.15 in 10.0 mi West 11.5 mph - N/A   Mostly Cloudy
1:55 PM 74.7 °F 49.8 °F 42% 30.15 in 10.0 mi WNW 13.8 mph - N/A   Scattered Clouds
2:15 PM 75.9 °F 50.2 °F 40% 30.15 in 10.0 mi West 13.8 mph 17.3 mph N/A   Scattered Clouds
2:35 PM 76.3 °F 50.0 °F 40% 30.14 in 10.0 mi West 12.7 mph 16.1 mph N/A   Scattered Clouds
2:55 PM 75.9 °F 50.7 °F 41% 30.14 in 10.0 mi WSW 10.4 mph 16.1 mph N/A   Mostly Cloudy
3:15 PM 76.5 °F 50.0 °F 39% 30.14 in 10.0 mi West 11.5 mph 18.4 mph N/A   Scattered Clouds
3:35 PM 77.2 °F 50.2 °F 39% 30.14 in 10.0 mi WNW 8.1 mph 13.8 mph N/A   Scattered Clouds
3:55 PM 77.4 °F 50.4 °F 39% 30.14 in 10.0 mi West 11.5 mph - N/A   Scattered Clouds
4:15 PM 77.4 °F 49.5 °F 37% 30.14 in 10.0 mi West 11.5 mph - N/A   Scattered Clouds
4:35 PM 76.5 °F 49.1 °F 38% 30.14 in 10.0 mi West 9.2 mph - N/A   Scattered Clouds
4:55 PM 77.2 °F 50.4 °F 39% 30.15 in 10.0 mi West 11.5 mph - N/A   Scattered Clouds
5:15 PM 77.2 °F 48.7 °F 37% 30.15 in 10.0 mi West 11.5 mph 16.1 mph N/A   Clear
5:35 PM 77.0 °F 49.3 °F 38% 30.14 in 10.0 mi WNW 8.1 mph - N/A   Mostly Cloudy
5:55 PM 75.4 °F 49.5 °F 40% 30.15 in 10.0 mi WNW 6.9 mph - N/A   Mostly Cloudy
6:15 PM 76.3 °F 49.1 °F 38% 30.15 in 10.0 mi WNW 9.2 mph - N/A   Scattered Clouds
6:35 PM 75.0 °F 48.9 °F 40% 30.15 in 10.0 mi WNW 8.1 mph - N/A   Mostly Cloudy
6:55 PM 74.8 °F 50.0 °F 42% 30.16 in 10.0 mi WNW 4.6 mph - N/A   Overcast
7:15 PM 74.5 °F 50.7 °F 43% 30.16 in 10.0 mi WNW 4.6 mph - N/A   Overcast
7:35 PM 74.5 °F 50.4 °F 43% 30.16 in 10.0 mi WNW 5.8 mph - N/A   Overcast
7:55 PM 73.8 °F 50.4 °F 44% 30.17 in 10.0 mi WNW 4.6 mph - N/A   Overcast
8:15 PM 72.9 °F 51.3 °F 47% 30.18 in 10.0 mi WNW 5.8 mph - N/A   Mostly Cloudy
8:35 PM 72.0 °F 52.3 °F 50% 30.18 in 10.0 mi Calm Calm - N/A   Scattered Clouds
8:55 PM 71.6 °F 52.2 °F 50% 30.18 in 10.0 mi Calm Calm - N/A   Scattered Clouds
9:15 PM 71.8 °F 51.8 °F 49% 30.18 in 10.0 mi Calm Calm - N/A   Mostly Cloudy
9:35 PM 71.4 °F 51.8 °F 50% 30.18 in 10.0 mi NNW 3.5 mph - N/A   Mostly Cloudy
9:55 PM 68.9 °F 53.4 °F 58% 30.19 in 10.0 mi Calm Calm - N/A   Scattered Clouds
10:15 PM 65.3 °F 55.2 °F 70% 30.20 in 10.0 mi Calm Calm - N/A   Clear
10:35 PM 63.7 °F 55.0 °F 73% 30.21 in 10.0 mi ESE 3.5 mph - N/A   Clear
10:55 PM 64.0 °F 55.0 °F 73% 30.20 in 10.0 mi Calm Calm - N/A   Clear
11:15 PM 63.0 °F 55.2 °F 76% 30.20 in 10.0 mi East 3.5 mph - N/A   Clear
11:35 PM 62.2 °F 55.2 °F 78% 30.20 in 10.0 mi Calm Calm - N/A   Clear
11:55 PM 61.9 °F 55.0 °F 78% 30.20 in 10.0 mi Calm Calm - N/A   Clear